Nadi, Fiji

11:43 AM +12 on June 27, 2017 (GMT +1200)
Nadi International

Weather History for NFFN - October, 2013

Change the Weather History Date:

Saturday, October 12, 2013

  Actual Average Record
Temperature  
Mean Temperature 73 °F -  
Max Temperature 82 °F 83 °F 90 °F (2014)
Min Temperature 64 °F 69 °F 64 °F (2013)
Cooling Degree Days 8    
Growing Degree Days 23 (Base 50)    
Moisture  
Dew Point 61 °F    
Average Humidity 64    
Maximum Humidity 83    
Minimum Humidity 39    
Precipitation  
Precipitation 0.00 in 0.15 in - ()
Sea Level Pressure  
Sea Level Pressure 29.97 in    
Wind  
Wind Speed 7 mph ()    
Max Wind Speed 14 mph    
Max Gust Speed -    
Visibility 7.0 miles    
Events      
Averages and records for this station are not official NWS values.
T = Trace of Precipitation, MM = Missing Value Source: Averaged Metar Reports

Daily Weather History Graph

Daily Weather History Graph

Search for Another Location

Airport or City:

Trip Planner

Search our weather history database for the weather conditions in past years. The results will help you decide how hot, cold, wet, or windy it might be!

Date:

Astronomy

Oct. 12, 2013 Rise Set
Actual Time 5:43 AM +12 6:09 PM +12
Civil Twilight 5:21 AM +12 6:31 PM +12
Nautical Twilight 4:56 AM +12 6:57 PM +12
Astronomical Twilight 4:30 AM +12 7:23 PM +12
Moon 11:45 AM +12 (10/12) 12:04 AM +12 (10/12)
Length of Visible Light 13h 09m
Length of Day
12h 25m
Waxing Crescent, 51% of the Moon is Illuminated
Oct 12
Waxing Crescent
Oct 19
Full
Oct 27
Last Quarter
Nov 4
New
Nov 10
First Quarter

Hourly Weather History & Observations

Time (+12) Temp. Heat Index Dew Point Humidity Pressure Visibility Wind Dir Wind Speed Gust Speed Precip Events Conditions
12:00 AM 67 °F - 61 °F 74% 29.99 in 12 mi ESE 8.1 mph - -   Partly Cloudy
12:00 AM 66.2 °F - 60.8 °F 83% 29.98 in 6.2 mi ESE 8.1 mph - N/A   Partly Cloudy
1:00 AM 68.0 °F - 59.0 °F 73% 29.98 in 6.2 mi East 6.9 mph - N/A   Partly Cloudy
2:00 AM 68.0 °F - 59.0 °F 73% 29.95 in 6.2 mi East 3.5 mph - N/A   Partly Cloudy
3:00 AM 66 °F - 59 °F 70% 29.95 in 12 mi ESE 8.1 mph - -   Partly Cloudy
3:00 AM 66.2 °F - 59.0 °F 78% 29.95 in 6.2 mi ESE 8.1 mph - N/A   Partly Cloudy
4:00 AM 66.2 °F - 57.2 °F 73% 29.95 in 6.2 mi ESE 6.9 mph - N/A   Partly Cloudy
5:00 AM 64.4 °F - 59.0 °F 83% 29.95 in 6.2 mi East 5.8 mph - N/A   Partly Cloudy
6:00 AM 65 °F - 58 °F 72% 29.96 in 12 mi ESE 8.1 mph - -   Partly Cloudy
6:00 AM 64.4 °F - 59.0 °F 83% 29.95 in 6.2 mi ESE 8.1 mph - N/A   Scattered Clouds
7:00 AM 68.0 °F - 59.0 °F 73% 29.98 in 6.2 mi East 5.8 mph - N/A   Partly Cloudy
8:00 AM 75.2 °F - 59.0 °F 57% 30.01 in 6.2 mi East 9.2 mph - N/A   Partly Cloudy
9:00 AM 79 °F - 59 °F 40% 30.02 in 31 mi East 5.8 mph - -   Partly Cloudy
9:00 AM 78.8 °F - 59.0 °F 51% 30.01 in 6.2 mi East 5.8 mph - N/A   Unknown
10:00 AM 80.6 °F 81.1 °F 59.0 °F 48% 30.01 in 6.2 mi SSW 3.5 mph - N/A   Unknown
11:00 AM 80.6 °F 81.5 °F 60.8 °F 51% 29.98 in 6.2 mi West 9.2 mph - N/A   Partly Cloudy
12:00 PM 80 °F - 60 °F 40% 29.98 in 31 mi WNW 12.7 mph - -   Partly Cloudy
12:00 PM 80.6 °F 81.5 °F 60.8 °F 51% 29.98 in 6.2 mi WNW 12.7 mph - N/A   Partly Cloudy
1:00 PM 80.6 °F 81.5 °F 60.8 °F 51% 29.95 in 6.2 mi WNW 12.7 mph - N/A   Partly Cloudy
2:00 PM 80.6 °F 81.8 °F 62.6 °F 54% 29.95 in 6.2 mi West 12.7 mph - N/A   Partly Cloudy
3:00 PM 82 °F - 61 °F 39% 29.93 in 31 mi West 12.7 mph - -   Partly Cloudy
3:00 PM 82.4 °F 82.9 °F 60.8 °F 48% 29.92 in 6.2 mi West 12.7 mph - N/A   Partly Cloudy
4:00 PM 80.6 °F 81.8 °F 62.6 °F 54% 29.92 in 6.2 mi West 13.8 mph - N/A   Partly Cloudy
5:00 PM 80.6 °F 81.8 °F 62.6 °F 54% 29.92 in 6.2 mi West 12.7 mph - N/A   Partly Cloudy
6:00 PM 79 °F - 64 °F 50% 29.94 in 31 mi SSW 9.2 mph - -   Partly Cloudy
6:00 PM 78.8 °F - 64.4 °F 61% 29.92 in 6.2 mi SSW 9.2 mph - N/A   Partly Cloudy
7:00 PM 75.2 °F - 64.4 °F 69% 29.95 in 6.2 mi South 6.9 mph - N/A   Partly Cloudy
8:00 PM 73.4 °F - 64.4 °F 73% 29.98 in 6.2 mi Calm Calm - N/A   Partly Cloudy
9:00 PM 72 °F - 65 °F 74% 30.01 in 12 mi East 4.6 mph - -   Partly Cloudy
9:00 PM 71.6 °F - 66.2 °F 83% 30.01 in 6.2 mi East 4.6 mph - N/A   Partly Cloudy
10:00 PM 69.8 °F - 64.4 °F 83% 30.01 in 6.2 mi East 5.8 mph - N/A   Partly Cloudy
11:00 PM 69.8 °F - 64.4 °F 83% 30.01 in 6.2 mi East 5.8 mph - N/A   Partly Cloudy